Chickamauga Chase 15k

 1999 Results

Menís Results
Overall
1    1 J W Kreider            51:56
Master
1    4 Van Townsend           53:29
Grand Master
1   28 Bobby Ogle           1:01:35
19 & Under
1   31 Peter Herron         1:02:24
2   32 Philip Wallace       1:02:49
3   73 Mark Bivens          1:06:58
4   78 Clayton Geissinger   1:07:25
5  171 Chris Robbins        1:16:48
6  215 Conrad Abbott        1:19:25
7  306 David Villmow        1:26:37
8  375 Mark Villmow         1:34:36
9  406 Brenton Floyd        1:49:04
20-24
1   11 Kevin Croft            57:44
2   33 William Meiners      1:03:01
3   62 Adam Jackson         1:06:18
4  174 Jason Thurman        1:17:05
5  202 Comer Hobbs Jr       1:18:37
6  208 Peter Shoemaker      1:18:52
7  210 Jeremiah Tate        1:18:54
8  238 Michael Layne        1:20:38
9  249 Chad Roberts         1:21:41
10 317 Andy Moore           1:27:40
25-29
1    2 Phelps Jackson         52:27
2   16 David Buntin           59:43
3   18 Matt Davies          1:00:20
4   23 Mitchel Cox          1:01:12
5   37 Sean Higgins         1:03:36
6   50 Timothy Keane        1:05:15
7   57 Anderson Fincher     1:06:01
8   72 Kevin Leftwich       1:06:57
9   77 Daniel Uson          1:07:16
10  88 Chris Smallwood      1:08:22
11  90 Rich Graham          1:08:38
12  97 Steve Dean           1:09:46
13 108 Matt Mclelland       1:10:47
14 119 Stuart Gladish       1:11:53
15 121 Jason Smith          1:12:10
16 155 Gene Hines           1:15:33
17 160 Dietrich Lorenz      1:16:09
18 196 David Newland        1:18:14
19 200 Marc Erickson        1:18:30
20 256 Dan Backer           1:22:04
21 264 Nathan Keller        1:22:56
22 275 Marc Funk            1:23:32
23 316 Phillip Green        1:27:33
24 350 Jason Bowling        1:31:40
25 354 Kevin Silvers        1:32:53
26 376 Jeff Acklen          1:34:38
30-34
1    7 Chris Frank            55:49
2   19 Herbert Krabel       1:00:45
3   22 Rod Peifer           1:01:11
4   26 Michael Miller       1:01:21
5   29 Chris Cowart         1:01:54
6   51 Patrick Hunter       1:05:26
7   52 Thad Whitfield       1:05:30
8   55 Charlie Bastnagel    1:05:55
9   75 Doug Niese           1:07:09
10  81 Brian Horton         1:07:38
11  91 David Ingram         1:08:55
12  98 David Grant          1:09:46
13 130 Mark Spooner         1:12:39
14 136 Frank Harrison       1:13:22
15 162 Gary Moan            1:16:10
16 163 Bob Marshall         1:16:11
17 194 Scott Wade           1:17:58
18 233 David Moghani        1:20:25
19 252 Don Backen           1:21:55
20 258 Alan Lebovitz        1:22:08
21 265 Brent Burns          1:22:58
22 291 Kelly Saylor         1:25:14
23 293 Jay Toney            1:25:25
24 294 Steve Tait           1:25:27
25 297 Michael Mallory      1:25:42
26 298 Michael Hawkins      1:26:07
27 303 Tim Terilli          1:26:26
28 337 Jim Hill             1:29:35
29 344 Ronald Bailey        1:30:39
30 363 Dave Cash            1:33:16
31 369 Johnny Rogers        1:34:02
32 370 Eric Mulkey          1:34:02
33 383 Jac Crawford         1:36:41
34 397 Scott Liedel         1:40:51
35-39
1    3 John Cobb              52:45
2    8 Tim Ensign             56:28
3   10 Jon Lawler             57:17
4   12 Mike Nichols           58:09
5   14 Richard Bishop         58:36
6   21 Robby Taliaferro     1:01:08
7   27 David Graham         1:01:23
8   38 Kurt Smithberger     1:03:46
9   48 Tim Sweo             1:04:50
10  56 William Baxter Jr    1:05:56
11  66 George Nydegger      1:06:30
12  76 Sam Boozer           1:07:12
13  83 Bo Saulsbury         1:07:47
14  85 Bill Minehan         1:08:04
15 115 Paul Davis           1:11:41
16 116 Scott Talbert        1:11:46
17 131 William Wallace Jr   1:12:58
18 137 George Wiley         1:13:25
19 140 Tarek Forgani        1:13:35
20 147 Lyle Swartzel        1:14:39
21 154 Frank Tilley         1:15:30
22 158 John Beckett         1:15:54
23 159 Art Webster          1:16:02
24 167 Scott Rollins        1:16:29
25 168 Tony Ellis           1:16:30
26 185 Dave Paul            1:17:34
27 211 Michael Smith        1:19:13
28 217 Pat Griffin          1:19:28
29 219 Kelly Mcbryde        1:19:41
30 230 Curtis Markham       1:20:15
31 235 Greg Mishica         1:20:30
32 251 Blaine Springfield   1:21:53
33 281 Morgan Adams         1:23:50
34 289 Michael Sparkman     1:24:45
35 315 Paul Southern        1:27:27
36 321 Dwayne Lett          1:27:44
37 328 Ross Mynatt          1:28:27
38 342 David Hull           1:30:08
39 348 Steve Smalling       1:31:35
40 352 Jeff Campbell        1:32:36
41 405 Julian Jackson       1:46:24
40-44
1    5 Chad Varga             53:40
2    6 Neil Feather           54:00
3    9 Mitch Keebler          56:45
4   13 Jerry Tipton           58:22
5   15 Dave Rogers            59:15
6   24 Gary Allen           1:01:14
7   30 Keon Lee             1:02:10
8   35 Michael Hartman      1:03:10
9   39 Jim Mclaughlin       1:03:52
10  44 Geary Fults          1:04:21
11  46 Steve Mcteer         1:04:42
12  49 Ray Mcintyre         1:05:04
13  58 Mizulto Taneoka      1:06:08
14  64 Steve Austin         1:06:21
15  67 David Presley        1:06:31
16  79 Jimmy Mcginness      1:07:26
17  82 Tim Parkes           1:07:40
18  87 Jim Platt            1:08:19
19  89 David Berkner        1:08:34
20  94 Bob Naber            1:09:09
21  96 Wayne Baker          1:09:18
22 107 Richard Meek         1:10:43
23 123 James Pierson        1:12:20
24 125 Vann Newell          1:12:25
25 128 Jack Carlson         1:12:31
26 132 Mike Wall            1:13:13
27 146 Gary Patterson       1:14:27
28 149 Brendan Olin         1:14:55
29 152 Steve Corkery        1:15:20
30 157 John Wilson          1:15:45
31 175 Mark Mourier         1:17:05
32 176 John Cavanaugh       1:17:06
33 182 Kevin Bradshaw       1:17:23
34 184 Tom Lester           1:17:31
35 186 Kerry Dunbar         1:17:34
36 190 Thomas Crosby        1:17:46
37 191 Don Gregg            1:17:47
38 198 Chris Richey         1:18:21
39 218 Steve Dowlen         1:19:38
40 223 Sam Hale             1:19:48
41 224 Josias Reyneke       1:19:55
42 245 Scott Wood           1:21:23
43 250 Lynn Mccurdy         1:21:52
44 254 Steve Hiatt          1:21:57
45 268 Rich Mercer          1:23:08
46 269 Dean Mcdaniel        1:23:14
47 276 Jim Besselman        1:23:34
48 301 Ray Swords           1:26:16
49 305 Sanford Hall         1:26:30
50 323 Dale Ledford         1:27:54
51 346 Jay Mcdonald         1:31:09
52 359 Ken Hill             1:33:10
53 360 Rex Templeton        1:33:13
54 379 Nick Dempsey         1:35:13
45-49
1   17 Nick Honerkamp         59:50
2   25 Jim Carter           1:01:16
3   34 Steve Rogers         1:03:08
4   40 Greg Hoerich         1:03:59
5   41 Normer Adams         1:04:04
6   42 Roger Keel           1:04:13
7   54 Mike Martin          1:05:47
8   59 John Harrison        1:06:08
9   70 Jody Hinds           1:06:44
10  80 Joe Axley            1:07:30
11  92 Carey Lasoya         1:08:57
12 101 Kent Worman          1:10:00
13 103 Flash Cunningham     1:10:12
14 106 Art Dacosta          1:10:25
15 109 Al Gassel            1:10:48
16 111 H Rick Rogers        1:10:56
17 112 Dennis Lundy         1:10:57
18 113 Albert Copeland      1:11:22
19 122 Jerry Jenkins        1:12:11
20 129 C L Leigh            1:12:34
21 134 Michael Rafferty     1:13:21
22 135 Bill Aiken           1:13:22
23 143 Randy Wood           1:13:58
24 144 Scott Parmenter      1:14:00
25 156 Dan Shefveland       1:15:40
26 170 Dorn Walker          1:16:43
27 181 Barry Teague         1:17:23
28 199 Chuck Feagans        1:18:26
29 204 Barry Wagner         1:18:44
30 220 Alec Taylor          1:19:43
31 225 Mark Koenitzer       1:19:57
32 228 Charles Owens        1:20:04
33 229 Larry Leigh          1:20:07
34 239 Dewayne Knight       1:20:42
35 271 Steve Stark          1:23:21
36 272 David Smith          1:23:22
37 274 David Fugate         1:23:30
38 287 Terry Baugh          1:24:37
39 310 Chris Levan          1:27:14
40 324 Jim Hamblen          1:28:00
41 325 Chris Deans          1:28:10
42 327 Kenneth Smith        1:28:22
43 330 Clifford Stalter     1:28:30
44 349 Steve Grilli         1:31:38
45 355 David Mann           1:32:54
46 368 Steve Hubbartt       1:34:00
47 377 Gary Baker           1:34:38
48 378 Kenneth Roe          1:35:10
50-54
1   43 Russ Brown           1:04:17
2   45 Doug Starkey         1:04:32
3   71 Craig Kelly          1:06:49
4  117 Sung Tae Kim         1:11:47
5  127 Allan Morgan         1:12:30
6  145 Chris Scammon        1:14:01
7  151 Tommy Sims           1:15:13
8  153 Ron Raulston         1:15:21
9  165 Floyd Smith          1:16:15
10 169 Jim Kimball          1:16:39
11 179 Bill Pollard         1:17:08
12 201 Monty Reeves         1:18:34
13 206 James Barnawell      1:18:51
14 222 John Hutton          1:19:46
15 231 Bill Bennett         1:20:16
16 266 David Benton         1:22:59
17 270 Wayne Ramsey         1:23:15
18 273 Eric Geissinger      1:23:27
19 290 Edmond Gregory       1:24:49
20 304 Ed Mcnair            1:26:28
21 307 Charles Herport      1:26:43
22 331 Willard Carlisle     1:28:32
23 366 Darrell Richardson   1:33:22
24 373 Patrick Lavin        1:34:18
25 385 Wendell Harless      1:37:00
26 388 Tom Puckett          1:37:32
27 392 Ron Villmow          1:38:46
28 411 Thomas Hannah        1:53:20
55-59
1   47 Dennis Gendron       1:04:45
2   61 Jesse Roberson       1:06:12
3   86 Ronnie Bryson        1:08:12
4   99 Al Lamontagne        1:09:49
5  104 Tommy Chisholm       1:10:15
6  110 Doug Hawley          1:10:55
7  150 Dick Dillard         1:15:13
8  189 Joe Moan             1:17:46
9  242 Charles Wright       1:20:58
10 248 Daniel Bailey        1:21:27
11 259 Winson Driver        1:22:11
12 261 Eric Stultz          1:22:23
13 295 Larry Robbins        1:25:37
14 300 Willard Thrash       1:26:14
15 309 David Wycherley      1:27:05
16 313 Robert Franz         1:27:22
17 320 Phil Thomas          1:27:41
18 343 Charlie Benson       1:30:27
19 353 Terry O'brien        1:32:50
20 358 Lee Wagner           1:33:10
21 398 Lee Meadows          1:41:35
22 400 Art Jones            1:42:00
60-69
1   69 Roy Lamm             1:06:40
2  100 Errol Lassiter       1:09:53
3  232 John Finn            1:20:18
4  267 Joe Mclaughlin       1:23:07
5  318 Charles Gibson       1:27:40
6  332 Don Burns            1:28:52
7  341 Jim Lowe             1:30:01
8  380 Don Mcclellan        1:35:24
9  395 Clifford Ackerson    1:39:54
70 & Over

1  334 B P Daniel           1:29:25

Womenís Results
Overall
1   20 Dee Goodwin          1:01:04
Master
1   36 Doris Windsand-Dausm 1:03:20
Grand Master
1  180 Rosemary Hurayt      1:17:22
19 & Under
1  227 Lori Hall            1:20:02
2  367 Alison Pack          1:33:49
20-24
1   65 Mary Missbach        1:06:23
2   84 Sherry Buquo         1:08:00
3  120 Kate Hall            1:12:01
4  203 Kristi Hawken        1:18:38
5  277 Cassie Ensley        1:23:38
6  314 Tabbatha Cavendish   1:27:24
7  336 Simrall Pratt        1:29:28
25-29
1   53 Jenn Mitchell-Jackso 1:05:31
2   60 Jennifer Cobb        1:06:11
3   63 Belinda Young        1:06:20
4   74 Kari Larsen          1:07:05
5   95 Amy Fincher          1:09:10
6  105 Susan Solomon        1:10:17
7  183 Sally Householder    1:17:27
8  195 Melissa Thompson     1:18:08
9  205 Kirsten Gum          1:18:48
10 221 Brittany Elkins      1:19:45
11 237 Laura Fritz          1:20:34
12 244 Roxanne Smith        1:21:22
13 255 Beth Lebovitz        1:22:03
14 257 Jennifer Funk        1:22:05
15 262 Angie Hughes         1:22:37
16 263 Lindie Goodgame      1:22:37
17 279 Holly Defenbaugh     1:23:42
18 312 Corinia Bromley      1:27:21
19 322 Valorie Lewis        1:27:53
20 333 Melissa Hindman      1:29:18
21 339 Gina Godbout         1:29:46
22 347 Shila Wright         1:31:14
23 356 Tara Mcginness       1:32:57
24 374 Jennifer Acklen      1:34:20
25 391 Kimmy Randolph       1:38:17
26 396 Karen Daily          1:40:20
30-34
1   68 Mindy Crawford       1:06:35
2  124 Hillary Currier      1:12:20
3  126 Elizabeth Corbett    1:12:29
4  138 Gail Lee             1:13:29
5  139 Jennifer Mcintyre    1:13:34
6  192 Wendy Markham        1:17:49
7  213 Christie Richardson  1:19:22
8  234 Kathie Mishica       1:20:30
9  236 Nancy Sells          1:20:34
10 246 Kathy Oster          1:21:24
11 278 Lea Marshall         1:23:39
12 286 Nicole Berger        1:24:21
13 302 Samantha Smith       1:26:19
14 319 Wendy Turner         1:27:41
15 326 Deborah Dudley       1:28:18
16 357 Lisa Morrow          1:32:57
17 362 Lisa Cash            1:33:16
18 364 Deanne Barker        1:33:19
19 381 Nandy Hurst          1:36:25
35-39
1  102 Chris Presley        1:10:03
2  141 Elouise Busby        1:13:54
3  148 Samantha Pack        1:14:40
4  161 Donna Thackwray      1:16:10
5  164 Alison Hixson        1:16:13
6  166 Suzanne Broussard    1:16:17
7  172 Paula Guffey         1:16:49
8  173 Lisa Barnes          1:16:57
9  187 Laurie Stephens      1:17:37
10 207 Karen Griffin        1:18:52
11 240 Pam Stieg            1:20:46
12 241 Susan Pelfrey        1:20:53
13 280 Beth Serodino        1:23:49
14 284 Jeannette Beach      1:23:58
15 285 Donna Hensley        1:24:09
16 299 Angela Beairsto      1:26:12
17 311 Donna Richardson     1:27:18
18 329 Diane Fort           1:28:28
19 340 Lisa Mcbryde         1:29:55
20 382 Kimberly Mcdaniel    1:36:40
21 386 Virginia Waddell     1:37:04
22 387 Linda Andreae        1:37:05
23 390 Suzanne Keeton       1:37:43
40-44
1   93 Sarah Bowen          1:09:01
2  114 Merri Ann St Charles 1:11:37
3  133 Joyce Lichty         1:13:17
4  142 Margaret Taylor      1:13:55
5  178 Kathy Hubbuch        1:17:08
6  193 Wanda Neidig         1:17:50
7  260 Susan Williams       1:22:15
8  282 Paula Douglas        1:23:52
9  283 Diane Halstead-Renz  1:23:58
10 338 Anne Baugh           1:29:40
11 345 Janet Mddonald       1:31:09
12 361 Betty Anderson       1:33:15
13 372 Susan Crabtree       1:34:06
14 393 Hilary Hunter        1:38:54
15 399 Diane Taylor         1:41:41
16 401 Tina Yerzy           1:42:49
17 402 Ann Lee              1:44:21
18 408 Dixie Brackett       1:52:42
45-49
1  118 Debbie Mcclanahan    1:11:47
2  177 Jean Posely Smith    1:17:06
3  188 Ruth Grover          1:17:41
4  197 Astrid Griffin       1:18:16
5  212 Bonnie Folkening     1:19:19
6  216 Sena Bolton          1:19:27
7  243 Becca Fuller         1:21:01
8  253 Patti Logan          1:21:56
9  292 Leann Asbury         1:25:22
10 296 Kristine Johnson     1:25:41
11 365 Dana Reising         1:33:21
12 371 Linda Hubbartt       1:34:03
13 389 Julie Langdon        1:37:35
14 403 Bettye Ray           1:44:47
15 407 Marsha Birdwell      1:51:34
16 410 Anne Salter          1:53:19
50-54
1  209 Brenda Cooter        1:18:53
2  214 Phylis Sizemore      1:19:24
3  308 Alva Lamontagne      1:27:02
4  384 Louise Young         1:36:47
5  404 Kathy Givens         1:46:19
6  409 Diane Moore          1:52:43
55-59
1  226 Judy Stoller         1:20:01
2  288 Jan Lowe             1:24:42
3  335 Shirley Larsen       1:29:25
4  351 Pat Campbell         1:32:35
5  412 Patricia Coveny      1:54:45
6  413 Betty Burrell        2:29:04
60-69
1  247 Liz Dickerson        1:21:26
2  394 Wendy Simonetti      1:39:21

70 & Over

None